User: anonymous   Login
Location: Unspecified
(0.0000°N, 0.0000°E)
Time: 22:19:40
(UTC+00:00)
Language:

STARLINK-31358 - Orbit

View from above orbital plane
View from above orbital plane
View from above satellite
View from above satellite

Ground track
Ground track

The orbit is defined by the following mean orbital elements,

1 58977U          26145.41094428 +.00000000 +00000-0 +39575-4 0 00002
2 58977  53.1609 300.0279 0000725  70.9571 289.1508 15.30189071    04
Epoch (UTC): 25 May 2026 09:51:45
Eccentricity: 0.0000725
inclination: 53.1609°
perigee height: 475 km
apogee height: 476 km
right ascension of ascending node: 300.0279°
argument of perigee: 70.9571°
revolutions per day: 15.30189071
mean anomaly at epoch: 289.1508°

The dashed part of the orbit path shows where the satellite is in the earth's shadow,  

DLR